Retour au catalogue

STARLINK-34499

ActifCommunicationsVLEO
NORAD 64709·PAYLOAD·🇺🇸 United States

Lancé Jun 28, 2025 depuis Vandenberg Space Force Base

Loading…

Prochains Passages (prochaines 24 heures)

TLE

FraisSource: CelesTrak SupGP

Époque: Sep 14, 2026, 22:42 UTC

1 64709C 25142P   26257.94631944 -.00031424  00000+0 -10931-2 0  2570
2 64709  70.0013 195.7417 0003234 269.2951 227.9954 15.29595062    12

Suivez STARLINK-34499 en temps réel avec AllMySat

Download on the App Store